Location: Köln
(50.9375°N, 6.9603°E)
Time: 08:51:15
(UTC+01:00)

Falcon 9 debris - Visible Passes

Search period start: 01 December 2021 00:00
Search period end: 11 December 2021 00:00
Orbit: 413 x 419 km, 53.0° (Epoch: 30 November)

Date Brightness Start Highest point End Pass type
(mag) Time Alt. Az. Time Alt. Az. Time Alt. Az.
01 Dec ? 05:10:13 21° ESE 05:10:13 21° ESE 05:11:43 10° E visible
01 Dec ? 06:43:08 22° WSW 06:45:11 81° NNW 06:48:33 10° ENE visible
02 Dec ? 05:56:52 77° SE 05:56:52 77° SE 06:00:07 10° ENE visible
02 Dec ? 07:30:12 10° W 07:33:31 58° N 07:36:50 10° E visible
03 Dec ? 05:10:30 20° E 05:10:30 20° E 05:11:40 10° ENE visible
03 Dec ? 06:43:24 27° W 06:45:01 61° N 06:48:21 10° ENE visible
04 Dec ? 05:56:57 59° NE 05:56:57 59° NE 05:59:52 10° ENE visible
04 Dec ? 07:30:01 10° WNW 07:33:21 64° N 07:36:41 10° E visible
05 Dec ? 05:10:26 18° ENE 05:10:26 18° ENE 05:11:23 10° ENE visible
05 Dec ? 06:43:20 29° WNW 06:44:50 58° N 06:48:09 10° E visible
06 Dec ? 05:56:47 51° NE 05:56:47 51° NE 05:59:36 10° ENE visible
06 Dec ? 07:29:42 10° WNW 07:33:04 88° NNE 07:36:25 10° ESE visible
07 Dec ? 05:10:11 17° ENE 05:10:11 17° ENE 05:11:04 10° ENE visible
07 Dec ? 06:43:05 30° WNW 06:44:33 71° NNE 06:47:53 10° E visible
08 Dec ? 05:56:28 53° NE 05:56:28 53° NE 05:59:18 10° E visible
08 Dec ? 07:29:21 10° WNW 07:32:37 54° SSW 07:35:54 10° SE visible
09 Dec ? 05:09:51 17° E 05:09:51 17° E 05:10:43 10° E visible
09 Dec ? 06:42:44 32° WNW 06:44:07 76° SSW 06:47:28 10° ESE visible
10 Dec ? 05:56:07 60° E 05:56:07 60° E 05:58:55 10° ESE visible
10 Dec ? 07:29:03 10° W 07:31:57 28° SW 07:34:51 10° SSE visible
